This is the latest recevied weather packets stored in our database for station/object N7TUG-8. If no packets are shown the sender has not sent any weather packets the latest 10 day(s).
| Time | Temp. | Humidity | Pressure | Rain* | Wind** | Luminosity | Snow |
|---|---|---|---|---|---|---|---|
| 1778162150 | 13.33° C | 80% | 1020.2 hPa | 0 mm | 0.89 m/s, 182° | - | - |
| 1778161828 | 13.33° C | 80% | 1020.2 hPa | 0 mm | 0.89 m/s, 182° | - | - |
| 1778161380 | 13.33° C | 80% | 1020.2 hPa | 0 mm | 0.89 m/s, 182° | - | - |
| 1778160992 | 13.33° C | 80% | 1020.2 hPa | 0 mm | 0.89 m/s, 182° | - | - |
| 1778160613 | 13.33° C | 80% | 1020.2 hPa | 0 mm | 0.89 m/s, 182° | - | - |
| 1778160207 | 13.33° C | 80% | 1020.2 hPa | 0 mm | 0.89 m/s, 182° | - | - |
| 1778159711 | 13.33° C | 80% | 1020.3 hPa | 0 mm | 0.45 m/s, 181° | - | - |
| 1778158791 | 13.33° C | 80% | 1020.3 hPa | 0 mm | 0.45 m/s, 200° | - | - |
| 1778157861 | 13.33° C | 80% | 1020.3 hPa | 0 mm | 0.45 m/s, 198° | - | - |
| 1778156986 | 13.33° C | 80% | 1020.3 hPa | 0 mm | 0.89 m/s, 199° | - | - |
| 1778156367 | 13.33° C | 80% | 1020.4 hPa | 0 mm | 0.45 m/s, 214° | - | - |
| 1778156076 | 13.33° C | 80% | 1020.5 hPa | 0 mm | 0.45 m/s, 205° | - | - |
| 1778155607 | 12.78° C | 80% | 1020.4 hPa | 0 mm | 0.45 m/s, 131° | - | - |
| 1778155206 | 12.78° C | 81% | 1020.4 hPa | 0 mm | 0.45 m/s, 215° | - | - |
| 1778154742 | 12.78° C | 81% | 1020.4 hPa | 0 mm | 0.45 m/s, 205° | - | - |
| 1778154291 | 12.78° C | 82% | 1020.5 hPa | 0 mm | 0.89 m/s, 205° | - | - |
| 1778153848 | 12.22° C | 83% | 1020.5 hPa | 0 mm | 0.45 m/s, 189° | - | - |
| 1778153391 | 11.67° C | 84% | 1020.6 hPa | 0 mm | 1.34 m/s, 156° | - | - |
| 1778153082 | 11.67° C | 84% | 1020.5 hPa | 0 mm | 1.79 m/s, 144° | - | - |
| 1778152521 | 11.67° C | 84% | 1020.6 hPa | 0 mm | 1.34 m/s, 144° | - | - |
| 1778152337 | 12.22° C | 84% | 1020.6 hPa | 0 mm | 1.34 m/s, 146° | - | - |
| 1778151736 | 12.22° C | 84% | 1020.7 hPa | 0 mm | 1.79 m/s, 142° | - | - |
| 1778150901 | 12.22° C | 83% | 1020.7 hPa | 0 mm | 2.24 m/s, 142° | - | - |
| 1778150618 | 12.22° C | 83% | 1020.7 hPa | 0 mm | 1.79 m/s, 142° | - | - |
| 1778149951 | 12.22° C | 84% | 1020.8 hPa | 0 mm | 2.24 m/s, 137° | - | - |
* Rain latest hour (hover to see other rain measurements)
** Current wind speed in m/s (hover to see current wind gust speed)